| time (UTC) | temp F | wind direction | speed knots | gust knots | rain 1hr in | rain 24hr in | rain mn in | humidity % | barometer mb |
| 20260504070223 | 42 | 207 | 0.0 | 0.0 | 0.00 | 0.01 | 0.00 | 72 | 1014.8 |
| 20260504050652 | 44 | 231 | 0.9 | 1.7 | 0.00 | 0.02 | 0.00 | 64 | 1015.2 |
| 20260504050152 | 44 | 231 | 0.9 | 1.7 | 0.00 | 0.02 | 0.00 | 66 | 1015.2 |
| 20260504045654 | 44 | 350 | 0.0 | 0.9 | 0.00 | 0.02 | 0.00 | 68 | 1015.1 |
| 20260504045152 | 44 | 350 | 0.0 | 0.9 | 0.00 | 0.02 | 0.00 | 68 | 1015.1 |
| 20260504044652 | 44 | 350 | 0.0 | 0.9 | 0.00 | 0.02 | 0.00 | 68 | 1015.1 |
| 20260504044153 | 44 | 350 | 0.0 | 0.0 | 0.00 | 0.02 | 0.00 | 69 | 1015.1 |
| 20260504043151 | 44 | 350 | 0.0 | 0.0 | 0.00 | 0.02 | 0.00 | 69 | 1015.0 |
| 20260504042152 | 44 | 350 | 0.0 | 0.0 | 0.00 | 0.02 | 0.00 | 67 | 1015.0 |
| 20260504041646 | 44 | 350 | 0.0 | 0.0 | 0.00 | 0.02 | 0.00 | 70 | 1015.0 |
| 20260504041139 | 44 | 350 | 0.0 | 0.9 | 0.00 | 0.02 | 0.00 | 68 | 1014.9 |
| 20260504040633 | 44 | 350 | 0.0 | 0.9 | 0.00 | 0.02 | 0.00 | 67 | 1014.8 |
| 20260504040127 | 44 | 350 | 0.0 | 0.0 | 0.00 | 0.02 | 0.00 | 66 | 1014.8 |
| 20260504035116 | 45 | 350 | 0.0 | 0.0 | 0.00 | 0.02 | 0.02 | 66 | 1014.8 |
| 20260504034611 | 45 | 350 | 0.0 | 0.0 | 0.00 | 0.02 | 0.02 | 67 | 1014.9 |
| 20260504034105 | 45 | 350 | 0.0 | 0.9 | 0.00 | 0.02 | 0.02 | 68 | 1014.9 |
| 20260504033558 | 45 | 350 | 0.0 | 0.9 | 0.00 | 0.02 | 0.02 | 66 | 1014.9 |
| 20260504033052 | 45 | 350 | 0.0 | 0.9 | 0.00 | 0.02 | 0.02 | 67 | 1014.9 |
| 20260504032041 | 45 | 350 | 0.0 | 0.0 | 0.00 | 0.02 | 0.02 | 64 | 1014.8 |
| 20260504031535 | 45 | 350 | 0.0 | 0.0 | 0.00 | 0.02 | 0.02 | 63 | 1014.7 |
| 20260504031028 | 45 | 350 | 0.0 | 0.0 | 0.00 | 0.02 | 0.02 | 65 | 1014.6 |
| 20260504030522 | 45 | 350 | 0.0 | 0.0 | 0.00 | 0.02 | 0.02 | 65 | 1014.7 |
| 20260504025511 | 46 | 350 | 0.0 | 0.0 | 0.00 | 0.02 | 0.02 | 66 | 1014.6 |
| 20260504025005 | 45 | 350 | 0.0 | 0.0 | 0.00 | 0.02 | 0.02 | 65 | 1014.6 |
| 20260504024458 | 46 | 350 | 0.0 | 0.0 | 0.00 | 0.02 | 0.02 | 66 | 1014.6 |
| 20260504023953 | 46 | 350 | 0.0 | 0.9 | 0.00 | 0.02 | 0.02 | 66 | 1014.6 |
| 20260504022939 | 46 | 350 | 0.0 | 0.0 | 0.00 | 0.02 | 0.02 | 64 | 1014.6 |
| 20260504022438 | 46 | 350 | 0.0 | 0.0 | 0.00 | 0.02 | 0.02 | 62 | 1014.6 |
| 20260504021938 | 46 | 350 | 0.0 | 0.0 | 0.00 | 0.02 | 0.02 | 63 | 1014.6 |
| 20260504021436 | 46 | 350 | 0.0 | 0.9 | 0.00 | 0.02 | 0.02 | 66 | 1014.5 |
| 20260504020938 | 46 | 350 | 0.0 | 0.9 | 0.00 | 0.02 | 0.02 | 66 | 1014.5 |
| 20260504020436 | 47 | 350 | 0.0 | 0.9 | 0.00 | 0.02 | 0.02 | 64 | 1014.5 |
| 20260504015933 | 47 | 350 | 0.0 | 0.0 | 0.00 | 0.02 | 0.02 | 61 | 1014.5 |
| 20260504015434 | 47 | 350 | 0.0 | 0.0 | 0.00 | 0.02 | 0.02 | 60 | 1014.5 |
| 20260504014430 | 47 | 350 | 0.0 | 0.9 | 0.00 | 0.02 | 0.02 | 63 | 1014.5 |
| 20260504013925 | 48 | 350 | 0.0 | 0.9 | 0.00 | 0.02 | 0.02 | 63 | 1014.5 |
| 20260504013427 | 48 | 350 | 0.0 | 0.0 | 0.00 | 0.02 | 0.02 | 59 | 1014.4 |
| 20260504012924 | 48 | 350 | 0.0 | 0.0 | 0.00 | 0.02 | 0.02 | 57 | 1014.4 |
| 20260504012422 | 48 | 350 | 0.0 | 1.7 | 0.00 | 0.02 | 0.02 | 56 | 1014.4 |
| 20260504011922 | 48 | 350 | 0.0 | 1.7 | 0.00 | 0.02 | 0.02 | 55 | 1014.2 |
| 20260504011423 | 49 | 350 | 0.0 | 0.9 | 0.00 | 0.02 | 0.02 | 60 | 1014.2 |
| 20260504010918 | 49 | 350 | 0.0 | 0.9 | 0.00 | 0.02 | 0.02 | 58 | 1014.1 |
| 20260504010417 | 49 | 350 | 0.0 | 0.0 | 0.00 | 0.02 | 0.02 | 54 | 1014.1 |
| 20260504005917 | 50 | 350 | 0.0 | 1.7 | 0.00 | 0.02 | 0.02 | 51 | 1014.2 |
| 20260504005417 | 50 | 350 | 0.0 | 1.7 | 0.00 | 0.02 | 0.02 | 50 | 1014.2 |
| 20260504004916 | 51 | 350 | 0.0 | 0.0 | 0.00 | 0.02 | 0.02 | 49 | 1014.1 |
| 20260504004415 | 51 | 350 | 0.0 | 0.0 | 0.00 | 0.02 | 0.02 | 49 | 1014.0 |
| 20260504003915 | 51 | 350 | 0.0 | 0.0 | 0.00 | 0.02 | 0.02 | 47 | 1013.9 |
| 20260504003415 | 52 | 350 | 0.0 | 0.0 | 0.00 | 0.02 | 0.02 | 47 | 1014.0 |
| 20260504001916 | 53 | 350 | 0.0 | 0.0 | 0.00 | 0.02 | 0.02 | 46 | 1013.7 |
| 20260504001417 | 53 | 350 | 0.0 | 0.9 | 0.00 | 0.02 | 0.02 | 45 | 1013.8 |
| 20260504000917 | 54 | 350 | 0.0 | 0.9 | 0.00 | 0.02 | 0.02 | 44 | 1013.8 |
| 20260504000416 | 54 | 350 | 0.0 | 0.9 | 0.00 | 0.02 | 0.02 | 43 | 1013.7 |
| 20260503235917 | 55 | 350 | 0.0 | 0.9 | 0.00 | 0.02 | 0.02 | 43 | 1013.7 |
| 20260503235416 | 55 | 350 | 0.0 | 0.9 | 0.00 | 0.02 | 0.02 | 43 | 1013.6 |
| 20260503234916 | 56 | 350 | 0.0 | 1.7 | 0.00 | 0.02 | 0.02 | 43 | 1013.6 |
| 20260503233914 | 57 | 312 | 0.9 | 2.6 | 0.00 | 0.02 | 0.02 | 41 | 1013.5 |
| 20260503233415 | 57 | 312 | 0.9 | 2.6 | 0.00 | 0.02 | 0.02 | 39 | 1013.4 |
| 20260503232914 | 57 | 312 | 0.9 | 2.6 | 0.00 | 0.02 | 0.02 | 38 | 1013.4 |
| 20260503232412 | 57 | 286 | 0.0 | 2.6 | 0.00 | 0.02 | 0.02 | 38 | 1013.3 |
| 20260503231910 | 58 | 323 | 0.9 | 2.6 | 0.00 | 0.02 | 0.02 | 39 | 1013.1 |
| 20260503231410 | 58 | 75 | 0.9 | 3.5 | 0.00 | 0.02 | 0.02 | 38 | 1013.1 |
| 20260503230912 | 58 | 332 | 1.7 | 4.3 | 0.00 | 0.02 | 0.02 | 37 | 1013.1 |
| 20260503230408 | 58 | 299 | 1.7 | 5.2 | 0.00 | 0.02 | 0.02 | 37 | 1013.1 |
| 20260503225909 | 58 | 257 | 1.7 | 5.2 | 0.00 | 0.02 | 0.02 | 36 | 1013.1 |
| 20260503225408 | 58 | 314 | 1.7 | 3.5 | 0.00 | 0.02 | 0.02 | 36 | 1013.3 |
| 20260503224908 | 58 | 294 | 1.7 | 6.1 | 0.00 | 0.02 | 0.02 | 38 | 1013.3 |
| 20260503224408 | 58 | 309 | 1.7 | 6.1 | 0.00 | 0.02 | 0.02 | 37 | 1013.3 |
| 20260503223905 | 58 | 268 | 1.7 | 5.2 | 0.00 | 0.02 | 0.02 | 38 | 1013.4 |
| 20260503223406 | 58 | 317 | 2.6 | 5.2 | 0.00 | 0.02 | 0.02 | 36 | 1013.3 |
| 20260503222905 | 58 | 313 | 1.7 | 6.1 | 0.00 | 0.02 | 0.02 | 37 | 1013.3 |
| 20260503222407 | 58 | 308 | 1.7 | 6.1 | 0.00 | 0.02 | 0.02 | 36 | 1013.3 |
| 20260503221906 | 58 | 315 | 1.7 | 6.1 | 0.00 | 0.02 | 0.02 | 36 | 1013.3 |
| 20260503221400 | 59 | 313 | 1.7 | 5.2 | 0.00 | 0.02 | 0.02 | 35 | 1013.3 |
| 20260503220855 | 59 | 238 | 1.7 | 4.3 | 0.00 | 0.02 | 0.02 | 37 | 1013.3 |
| 20260503215842 | 59 | 288 | 1.7 | 6.1 | 0.00 | 0.02 | 0.02 | 37 | 1013.4 |
| 20260503215335 | 59 | 298 | 0.9 | 6.1 | 0.00 | 0.02 | 0.02 | 38 | 1013.4 |
| 20260503214830 | 59 | 317 | 1.7 | 5.2 | 0.00 | 0.02 | 0.02 | 36 | 1013.4 |
| 20260503214325 | 59 | 294 | 1.7 | 5.2 | 0.00 | 0.02 | 0.02 | 34 | 1013.3 |
| 20260503213818 | 59 | 293 | 1.7 | 6.1 | 0.00 | 0.02 | 0.02 | 36 | 1013.3 |
| 20260503213312 | 59 | 40 | 2.6 | 7.8 | 0.00 | 0.02 | 0.02 | 36 | 1013.3 |
| 20260503212807 | 59 | 295 | 2.6 | 7.8 | 0.00 | 0.02 | 0.02 | 36 | 1013.3 |
| 20260503212300 | 58 | 301 | 0.9 | 4.3 | 0.00 | 0.02 | 0.02 | 35 | 1013.3 |
| 20260503211754 | 58 | 267 | 1.7 | 6.1 | 0.00 | 0.02 | 0.02 | 38 | 1013.1 |
| 20260503211248 | 58 | 295 | 2.6 | 7.8 | 0.00 | 0.02 | 0.02 | 36 | 1013.3 |
| 20260503210742 | 58 | 246 | 2.6 | 7.8 | 0.00 | 0.02 | 0.02 | 34 | 1013.3 |
| 20260503205730 | 58 | 344 | 1.7 | 6.1 | 0.00 | 0.02 | 0.02 | 36 | 1013.3 |
| 20260503204719 | 58 | 319 | 2.6 | 7.0 | 0.00 | 0.02 | 0.02 | 34 | 1013.1 |
| 20260503203204 | 58 | 290 | 2.6 | 9.6 | 0.00 | 0.02 | 0.02 | 35 | 1013.3 |
| 20260503202655 | 58 | 223 | 3.5 | 9.6 | 0.00 | 0.02 | 0.02 | 35 | 1013.3 |
| 20260503202157 | 58 | 291 | 3.5 | 7.0 | 0.00 | 0.02 | 0.02 | 34 | 1013.4 |
| 20260503201655 | 58 | 264 | 2.6 | 7.0 | 0.00 | 0.02 | 0.02 | 34 | 1013.4 |
| 20260503200656 | 59 | 292 | 1.7 | 7.0 | 0.00 | 0.02 | 0.02 | 36 | 1013.5 |
| 20260503200158 | 59 | 279 | 1.7 | 7.0 | 0.00 | 0.02 | 0.02 | 35 | 1013.6 |
| 20260503195654 | 58 | 327 | 1.7 | 7.0 | 0.00 | 0.02 | 0.02 | 35 | 1013.5 |
| 20260503195159 | 58 | 233 | 1.7 | 6.1 | 0.00 | 0.02 | 0.02 | 33 | 1013.8 |
| 20260503194651 | 58 | 298 | 1.7 | 6.1 | 0.00 | 0.02 | 0.02 | 36 | 1013.8 |
| 20260503194149 | 58 | 324 | 2.6 | 7.0 | 0.00 | 0.02 | 0.02 | 35 | 1013.9 |
| 20260503193651 | 59 | 5 | 2.6 | 7.0 | 0.00 | 0.02 | 0.02 | 34 | 1014.0 |
| 20260503193150 | 59 | 310 | 1.7 | 6.1 | 0.00 | 0.02 | 0.02 | 35 | 1013.9 |
| 20260503192651 | 59 | 323 | 1.7 | 6.1 | 0.00 | 0.02 | 0.02 | 35 | 1014.0 |
| 20260503192151 | 58 | 305 | 2.6 | 9.6 | 0.00 | 0.02 | 0.02 | 35 | 1014.0 |
| 20260503191649 | 58 | 308 | 3.5 | 11.3 | 0.00 | 0.02 | 0.02 | 34 | 1014.2 |
| 20260503191149 | 58 | 311 | 2.6 | 11.3 | 0.00 | 0.02 | 0.02 | 35 | 1014.2 |
| 20260503190650 | 58 | 231 | 1.7 | 7.0 | 0.00 | 0.02 | 0.02 | 39 | 1014.1 |
| 20260503185645 | 56 | 268 | 3.5 | 11.3 | 0.00 | 0.02 | 0.02 | 38 | 1014.4 |
| 20260503185139 | 56 | 286 | 4.3 | 12.2 | 0.00 | 0.02 | 0.02 | 37 | 1014.4 |
| 20260503184635 | 56 | 282 | 3.5 | 7.8 | 0.00 | 0.02 | 0.02 | 38 | 1014.5 |
| 20260503184127 | 56 | 288 | 3.5 | 7.8 | 0.00 | 0.02 | 0.02 | 35 | 1014.5 |
| 20260503183115 | 57 | 297 | 1.7 | 8.7 | 0.00 | 0.02 | 0.02 | 37 | 1014.6 |
| 20260503182609 | 57 | 268 | 1.7 | 7.0 | 0.00 | 0.02 | 0.02 | 41 | 1014.5 |
| 20260503182104 | 56 | 242 | 1.7 | 7.0 | 0.00 | 0.02 | 0.02 | 39 | 1014.4 |
| 20260503181557 | 57 | 292 | 1.7 | 6.1 | 0.00 | 0.02 | 0.02 | 37 | 1014.7 |
| 20260503181051 | 56 | 290 | 2.6 | 8.7 | 0.00 | 0.02 | 0.02 | 38 | 1014.6 |
| 20260503180545 | 56 | 293 | 3.5 | 8.7 | 0.00 | 0.02 | 0.02 | 39 | 1014.8 |
| 20260503180041 | 56 | 290 | 3.5 | 8.7 | 0.00 | 0.02 | 0.02 | 41 | 1014.7 |
| 20260503175542 | 56 | 277 | 2.6 | 8.7 | 0.00 | 0.02 | 0.02 | 37 | 1014.7 |
| 20260503175042 | 56 | 208 | 1.7 | 7.0 | 0.00 | 0.02 | 0.02 | 38 | 1014.7 |
| 20260503174543 | 55 | 307 | 2.6 | 5.2 | 0.00 | 0.02 | 0.02 | 39 | 1014.7 |
| 20260503174041 | 55 | 298 | 2.6 | 7.8 | 0.00 | 0.02 | 0.02 | 41 | 1014.7 |
| 20260503173039 | 54 | 294 | 3.5 | 8.7 | 0.00 | 0.02 | 0.02 | 39 | 1014.8 |
| 20260503172039 | 53 | 342 | 3.5 | 8.7 | 0.00 | 0.02 | 0.02 | 41 | 1014.9 |
| 20260503171539 | 53 | 342 | 3.5 | 9.6 | 0.00 | 0.02 | 0.02 | 43 | 1015.0 |
| 20260503171039 | 53 | 298 | 3.5 | 9.6 | 0.00 | 0.02 | 0.02 | 40 | 1015.0 |
| 20260503131000 | 43 | 279 | 4.3 | 10.4 | 0.00 | 0.02 | 0.01 | 56 | 1015.8 |
| 20260503130502 | 43 | 257 | 3.5 | 9.6 | 0.00 | 0.02 | 0.01 | 57 | 1015.9 |
| 20260503110344 | 38 | 261 | 1.7 | 3.5 | 0.00 | 0.02 | 0.01 | 71 | 1015.0 |
| 20260503090249 | 39 | 294 | 1.7 | 3.5 | 0.00 | 0.03 | 0.01 | 71 | 1013.5 |
| 20260503080742 | 39 | 295 | 1.7 | 4.3 | 0.00 | 0.03 | 0.01 | 71 | 1013.3 |
| 20260503080243 | 39 | 314 | 1.7 | 3.5 | 0.00 | 0.03 | 0.01 | 71 | 1013.1 |
| 20260503072238 | 40 | 298 | 0.9 | 2.6 | 0.00 | 0.03 | 0.01 | 72 | 1012.7 |
| 20260503071738 | 40 | 295 | 0.9 | 2.6 | 0.00 | 0.03 | 0.01 | 72 | 1012.7 |